Regional Weather Roundup
Issued by NWS Northern Indiana

Home | Current Version | Previous Version | Graphics & Text | Print | Product List | Glossary On
Versions: 1 2 3 4 5 6 7 8 9 10 11 12 13 14 15 16 17 18 19 20 21 22 23 24 25 26 27 28 29 30 31 32 33 34 35 36 37 38 39 40 41 42 43 44 45 46 47 48 49 50
000
ASUS43 KIWX 300510
RWRIWX

KIWX WEATHER ROUNDUP
NATIONAL WEATHER SERVICE NORTHERN INDIANA
100 AM EDT TUE SEP 30 2014

NOTE: "FAIR" INDICATES FEW OR NO CLOUDS BELOW 12,000 FEET WITH NO
SIGNIFICANT WEATHER AND/OR OBSTRUCTIONS TO VISIBILITY.

* THESE STATIONS ARE NOT UNDER NWS QUALITY CONTROL. THEY ALSO MAY NOT
  REPORT WEATHER SUCH AS PRECIPITATION OR FOG.

INZ001>027-300600-
NORTHERN INDIANA

CITY           SKY/WX    TMP DP  RH WIND       PRES   REMARKS
GARY*          CLOUDY    59  54  82 N16G22    30.01S
VALPARAISO     CLOUDY    58  53  84 N10G20    29.99R
MICHIGAN CITY* CLOUDY    55  50  82 N15G23    30.00R
LAPORTE*       CLOUDY    59  57  93 N12G18    29.98S
KNOX*          CLOUDY    58  54  86 N8        29.96S
SOUTH BEND     CLOUDY    59  55  87 NW10      29.97S
MONTICELLO*    CLOUDY    60  59  97 N8        29.95R FOG
LOGANSPORT*    PTCLDY    61  55  82 N14       29.95R FOG
ROCHESTER*     CLOUDY    61  59  94 N6        29.95S FOG
WARSAW*        PTCLDY    59  55  88 NW5       29.94S FOG
ANGOLA*        PTCLDY    61  57  88 NW5       29.93S
FORT WAYNE     PTCLDY    59  55  87 SW5       29.92S
HUNTINGTON*    MOCLDY    58  57  97 CALM      29.91S
PERU/GRISSOM   CLEAR     63  60  90 NW7       29.93R
MARION*        CLEAR     56  52  88 S3        29.93S

$$
INZ028>050-300600-
CENTRAL INDIANA

CITY           SKY/WX    TMP DP  RH WIND       PRES   REMARKS
LAFAYETTE      CLEAR     61  58  90 N8        29.94R
KOKOMO*        CLEAR     61  54  77 CALM      29.93S
MUNCIE*        CLEAR     60  53  77 S3        29.93F
INDIANAPOLIS   CLEAR     61  54  77 W5        29.93S

$$
MIZ043>046-050>051-056>058-064>065-071>073-077>080-300600-
SOUTHWEST LOWER MICHIGAN

CITY           SKY/WX    TMP DP  RH WIND       PRES   REMARKS
BATTLE CREEK   LGT RAIN  58  55  90 N12       29.94S
COLDWATER*     LGT RAIN  63  60  91 NW3       29.92F
HILLSDALE*     MOCLDY    61  60  95 CALM      29.91F
GRAND RAPIDS   CLOUDY    51  51 100 NW9       29.98S FOG
KALAMAZOO      LGT RAIN  56  54  93 N12       29.95S
STURGIS*       CLOUDY    59  57  94 NW6       29.93S
THREE RIVERS*  CLOUDY    60  57  89 NW5       29.94S

$$
OHZ001>008-015>018-024>025-300600-
NORTHWEST OHIO

CITY           SKY/WX    TMP DP  RH WIND       PRES   REMARKS
WAUSEON*       FAIR      59  55  88 CALM      29.89S
DEFIANCE       CLEAR     58  54  86 CALM      29.90F
FINDLAY        CLEAR     57  51  80 S6        29.89F
TOLEDO EXPRESS PTCLDY    55  54  96 CALM      29.88F
TOLEDO METCALF CLEAR     59  55  87 CALM      29.89F
LIMA           CLEAR     58  52  80 S3        29.92S

$$
AND FOR LAKE MICHIGAN COASTAL AND OPEN LAKE BUOY OBSERVATIONS

STATION/POSITION TEMP    WIND        PRES    VSBY  WAVE
                 AIR SEA DIR/SP/G                  HT/PER
                 (F)     (DEG/KT/KT) (MB)    (MI)  (FT/S)
CALUMET HARBOR    57     360/ 13/ 16 1014.9F
MICHIGAN CITY     57     350/ 22/ 26   N/A
SAINT JOSEPH      57     350/ 13/ 21 1016.6R
SOUTH LAKE BUOY   53 63  350/ 21/ 27 1016.1R         8/ 8
4 MI NW BRIDGMAN  56 63   10/ 19/ 23   N/A           8/ 2
MICHIGAN CITY     57 65   10/ 17/ 23   N/A           8/ 2

$$
&&



USA.gov is the U.S. government's official web portal to all federal, state and local government web resources and services.